Location: Unspecified
(43.4354°N, 0.0000°E)
Time: 14:12:07
(UTC+00:00)

Tiros 1 despin weight - Pass Details

Date: 28 June 2019
Orbit: 594 x 642 km, 48.2° (Epoch: 24 August)

Event Time Altitude Azimuth Distance (km) Brightness Sun altitude
Rises 03:04:46 0° 291° (WNW) 2,835 ? -11.3°
Reaches altitude 10° 03:07:11 10° 282° (WNW) 1,928 ? -11.0°
Maximum altitude 03:11:11 34° 217° (SW) 976 ? -10.5°
Drops below altitude 10° 03:15:11 10° 152° (SSE) 1,920 ? -10.0°
Sets 03:17:36 0° 144° (SE) 2,822 ? -9.7°
